EZY13KM LEPA-EGKK

Flight info

Callsign EZY13KM
Flight time N/A
Altitude 36000
Route DRAGO DCT PAPOS DCT UMURE DCT XIKEN DCT KARES DCT ARBEK DCT REBUL DCT USKAR DCT MOPAS DCT GIROM DCT GONUP DCT MANAK DCT TIRAV DCT DIXAD DCT NTS DCT BAKUL DCT REN DCT UPALO DCT REVTU DCT ODREP UP88 VASUX
Aircraft A320/M-SDE2E3FGHIRWXY/LB1

Departure

Time 2026-05-03 21:39
Airport Palma de Mallorca Airport (LEPA)

Arrival

Time N/A
Airport London Gatwick Airport (EGKK)
Time Latitude Longitude Altitude Speed Heading
2026-05-03 21:14 39.54541 2.73276 30 ft 0 kts 345°
2026-05-03 21:30 39.54528 2.73280 30 ft 4 kts 347°
2026-05-03 21:30 39.54504 2.73287 30 ft 4 kts 340°
2026-05-03 21:30 39.54487 2.73303 30 ft 4 kts 261°
2026-05-03 21:31 39.54498 2.73333 30 ft 4 kts 234°
2026-05-03 21:31 39.54507 2.73350 30 ft 0 kts 238°
2026-05-03 21:33 39.54507 2.73349 30 ft 1 kts 238°
2026-05-03 21:33 39.54487 2.73306 30 ft 6 kts 238°
2026-05-03 21:33 39.54470 2.73270 30 ft 6 kts 238°
2026-05-03 21:34 39.54438 2.73220 30 ft 7 kts 214°
2026-05-03 21:34 39.54401 2.73216 34 ft 2 kts 169°
2026-05-03 21:34 39.54368 2.73216 38 ft 20 kts 196°
2026-05-03 21:34 39.54313 2.73129 37 ft 18 kts 244°
2026-05-03 21:35 39.54248 2.73057 38 ft 0 kts 185°
2026-05-03 21:35 39.54246 2.73058 38 ft 2 kts 180°
2026-05-03 21:35 39.54235 2.73065 38 ft 1 kts 145°
2026-05-03 21:35 39.54224 2.73092 38 ft 6 kts 111°
2026-05-03 21:36 39.54219 2.73136 38 ft 4 kts 94°
2026-05-03 21:36 39.54219 2.73158 38 ft 3 kts 91°
2026-05-03 21:36 39.54215 2.73223 38 ft 10 kts 95°
2026-05-03 21:36 39.54211 2.73307 38 ft 9 kts 91°
2026-05-03 21:37 39.54224 2.73373 38 ft 7 kts 66°
2026-05-03 21:37 39.54245 2.73421 38 ft 5 kts 59°
2026-05-03 21:37 39.54261 2.73456 38 ft 4 kts 58°
2026-05-03 21:37 39.54274 2.73483 38 ft 4 kts 58°
2026-05-03 21:38 39.54286 2.73509 38 ft 3 kts 58°
2026-05-03 21:38 39.54309 2.73558 38 ft 23 kts 58°
2026-05-03 21:38 39.54530 2.74024 38 ft 95 kts 58°
2026-05-03 21:38 39.54981 2.74979 39 ft 151 kts 58°
2026-05-03 21:39 39.55594 2.76269 305 ft 175 kts 59°
2026-05-03 21:39 39.56243 2.77653 913 ft 184 kts 60°
2026-05-03 21:39 39.56905 2.79103 1487 ft 192 kts 64°
2026-05-03 21:39 39.57425 2.80259 1735 ft 209 kts 63°
2026-05-03 21:40 39.58206 2.81997 2181 ft 222 kts 63°
2026-05-03 21:40 39.58998 2.83744 2793 ft 228 kts 62°
2026-05-03 21:40 39.59810 2.85533 3425 ft 232 kts 61°
2026-05-03 21:40 39.60637 2.87351 4125 ft 235 kts 60°
2026-05-03 21:41 39.61486 2.89181 4884 ft 239 kts 55°
2026-05-03 21:41 39.62738 2.90575 5531 ft 242 kts 19°
2026-05-03 21:41 39.64372 2.90826 6209 ft 237 kts 343°
2026-05-03 21:41 39.65813 2.89920 6908 ft 229 kts 311°
2026-05-03 21:42 39.66544 2.88600 7441 ft 224 kts 289°
2026-05-03 21:42 39.67109 2.86714 8187 ft 224 kts 285°
2026-05-03 21:42 39.67584 2.84778 8941 ft 225 kts 282°
2026-05-03 21:42 39.67964 2.82806 9703 ft 226 kts 279°
2026-05-03 21:43 39.68250 2.80797 10412 ft 227 kts 275°
2026-05-03 21:43 39.68442 2.78763 11119 ft 227 kts 272°
2026-05-03 21:43 39.68536 2.76711 11838 ft 228 kts 269°
2026-05-03 21:43 39.68530 2.74649 12523 ft 231 kts 265°
2026-05-03 21:44 39.68410 2.72476 12777 ft 253 kts 262°
2026-05-03 21:44 39.68308 2.70097 12991 ft 277 kts 270°
2026-05-03 21:44 39.68577 2.67514 13171 ft 302 kts 281°
2026-05-03 21:44 39.69323 2.64855 13480 ft 322 kts 293°
2026-05-03 21:45 39.70552 2.62368 14078 ft 334 kts 304°
2026-05-03 21:45 39.72230 2.60228 14684 ft 344 kts 317°
2026-05-03 21:45 39.74179 2.58440 15318 ft 349 kts 320°
2026-05-03 21:45 39.76182 2.56633 15939 ft 353 kts 320°
2026-05-03 21:46 39.78209 2.54802 16556 ft 356 kts 320°
2026-05-03 21:46 39.80251 2.52956 17152 ft 360 kts 320°
2026-05-03 21:46 39.82312 2.51091 17757 ft 363 kts 320°
2026-05-03 21:46 39.84396 2.49200 18345 ft 367 kts 320°
2026-05-03 21:47 39.86499 2.47288 18857 ft 370 kts 320°
2026-05-03 21:47 39.88616 2.45358 19373 ft 374 kts 320°
2026-05-03 21:47 39.90756 2.43409 19886 ft 377 kts 320°
2026-05-03 21:47 39.92862 2.41358 20406 ft 377 kts 313°
2026-05-03 21:48 39.94615 2.38859 20894 ft 374 kts 301°
2026-05-03 21:48 39.95922 2.35954 21395 ft 371 kts 290°
2026-05-03 21:48 39.96748 2.32769 21893 ft 370 kts 278°
2026-05-03 21:48 39.97089 2.29449 22393 ft 371 kts 272°
2026-05-03 21:49 39.97323 2.26086 22897 ft 374 kts 272°
2026-05-03 21:49 39.97563 2.22695 23394 ft 377 kts 272°
2026-05-03 21:49 39.97806 2.19274 23830 ft 381 kts 272°
2026-05-03 21:49 39.98054 2.15831 24249 ft 383 kts 272°
2026-05-03 21:50 39.98304 2.12367 24672 ft 385 kts 272°
2026-05-03 21:50 39.98554 2.08878 25092 ft 387 kts 272°
2026-05-03 21:50 39.98802 2.05380 25504 ft 388 kts 272°
2026-05-03 21:50 39.99044 2.01863 25908 ft 390 kts 272°
2026-05-03 21:51 39.99286 1.98332 26308 ft 392 kts 272°
2026-05-03 21:51 39.99528 1.94793 26701 ft 393 kts 272°
2026-05-03 21:51 39.99771 1.91237 27085 ft 395 kts 272°
2026-05-03 21:51 40.00018 1.87665 27463 ft 396 kts 272°
2026-05-03 21:52 40.00377 1.84134 27825 ft 401 kts 280°
2026-05-03 21:52 40.01322 1.80686 28195 ft 409 kts 293°
2026-05-03 21:52 40.02892 1.77555 28553 ft 418 kts 306°
2026-05-03 21:52 40.05038 1.74931 28903 ft 428 kts 320°
2026-05-03 21:53 40.07670 1.73029 29215 ft 439 kts 333°
2026-05-03 21:53 40.10527 1.71568 29542 ft 442 kts 334°
2026-05-03 21:53 40.13397 1.70108 29851 ft 444 kts 333°
2026-05-03 21:53 40.16281 1.68634 30152 ft 446 kts 333°
2026-05-03 21:54 40.19172 1.67151 30415 ft 447 kts 333°
2026-05-03 21:54 40.22078 1.65657 30667 ft 449 kts 333°
2026-05-03 21:54 40.24986 1.64160 30924 ft 450 kts 333°
2026-05-03 21:54 40.27898 1.62655 31175 ft 451 kts 333°
2026-05-03 21:55 40.30826 1.61140 31437 ft 452 kts 333°
2026-05-03 21:55 40.33745 1.59630 31783 ft 451 kts 333°
2026-05-03 21:55 40.36656 1.58126 32119 ft 450 kts 333°
2026-05-03 21:55 40.39563 1.56621 32457 ft 449 kts 333°
2026-05-03 21:56 40.42457 1.55120 32778 ft 448 kts 333°
2026-05-03 21:56 40.45359 1.53616 33100 ft 447 kts 333°
2026-05-03 21:56 40.48250 1.52119 33440 ft 446 kts 333°
2026-05-03 21:56 40.51135 1.50623 33767 ft 445 kts 333°
2026-05-03 21:57 40.54013 1.49128 34083 ft 444 kts 333°
2026-05-03 21:57 40.56884 1.47634 34367 ft 444 kts 333°
2026-05-03 21:57 40.59750 1.46144 34629 ft 443 kts 333°
2026-05-03 21:57 40.62615 1.44654 34894 ft 442 kts 333°
2026-05-03 21:58 40.65469 1.43166 35146 ft 441 kts 333°
2026-05-03 21:58 40.68319 1.41679 35392 ft 441 kts 333°
2026-05-03 21:58 40.71167 1.40191 35629 ft 440 kts 333°
2026-05-03 21:58 40.74011 1.38703 35862 ft 439 kts 333°
2026-05-03 21:59 40.76851 1.37216 35996 ft 438 kts 333°
2026-05-03 21:59 40.79638 1.35758 36021 ft 435 kts 333°
2026-05-03 21:59 40.85247 1.32815 36027 ft 433 kts 333°
2026-05-03 22:00 40.90842 1.29857 36025 ft 433 kts 333°
2026-05-03 22:00 40.96446 1.26909 36028 ft 433 kts 333°
2026-05-03 22:01 41.02053 1.23956 36031 ft 433 kts 333°
2026-05-03 22:01 41.07652 1.20991 36033 ft 433 kts 333°
2026-05-03 22:02 41.13266 1.18057 36033 ft 435 kts 337°
2026-05-03 22:02 41.19289 1.16652 36032 ft 445 kts 351°
2026-05-03 22:03 41.25422 1.16043 36032 ft 445 kts 351°
2026-05-03 22:03 41.31593 1.15386 36025 ft 446 kts 351°
2026-05-03 22:04 41.37777 1.14727 36025 ft 445 kts 351°
2026-05-03 22:04 41.43958 1.14073 36023 ft 446 kts 351°
2026-05-03 22:05 41.50152 1.13421 36024 ft 447 kts 351°
2026-05-03 22:05 41.56349 1.12771 36020 ft 447 kts 351°
2026-05-03 22:06 41.62558 1.12117 36019 ft 447 kts 351°
2026-05-03 22:06 41.68769 1.11461 36021 ft 448 kts 351°
2026-05-03 22:07 41.74979 1.10796 36018 ft 448 kts 351°
2026-05-03 22:07 41.81192 1.10130 36012 ft 448 kts 351°
2026-05-03 22:08 41.87403 1.09468 36002 ft 448 kts 351°
2026-05-03 22:08 41.93621 1.08802 36001 ft 449 kts 351°
2026-05-03 22:09 41.99851 1.08141 36000 ft 449 kts 351°
2026-05-03 22:10 42.09163 1.07145 36010 ft 449 kts 351°
2026-05-03 22:10 42.15436 1.06463 36022 ft 450 kts 351°
2026-05-03 22:11 42.21677 1.05793 36032 ft 450 kts 351°
2026-05-03 22:11 42.27880 1.05134 36046 ft 450 kts 351°
2026-05-03 22:12 42.34117 1.04463 36047 ft 450 kts 351°
2026-05-03 22:12 42.40359 1.03795 36045 ft 450 kts 351°
2026-05-03 22:13 42.46603 1.03115 36039 ft 450 kts 351°
2026-05-03 22:13 42.52848 1.02431 36034 ft 451 kts 351°
2026-05-03 22:14 42.59098 1.01742 36028 ft 451 kts 351°
2026-05-03 22:14 42.65348 1.01056 36019 ft 451 kts 351°
2026-05-03 22:15 42.71604 1.00371 36007 ft 451 kts 351°
2026-05-03 22:15 42.77847 0.99538 35996 ft 448 kts 344°
2026-05-03 22:16 42.83874 0.97532 35982 ft 445 kts 341°
2026-05-03 22:16 42.89884 0.95459 35982 ft 446 kts 341°
2026-05-03 22:17 42.95872 0.93390 35972 ft 447 kts 341°
2026-05-03 22:17 43.01905 0.91310 35976 ft 448 kts 341°
2026-05-03 22:18 43.07950 0.89228 35965 ft 448 kts 341°
2026-05-03 22:18 43.13974 0.87126 35966 ft 448 kts 340°
2026-05-03 22:19 43.20040 0.85006 35962 ft 449 kts 340°
2026-05-03 22:19 43.26095 0.82893 35966 ft 449 kts 340°
2026-05-03 22:20 43.32149 0.80782 35970 ft 449 kts 340°
2026-05-03 22:20 43.38208 0.78659 35980 ft 449 kts 340°
2026-05-03 22:21 43.44225 0.76547 35977 ft 449 kts 340°
2026-05-03 22:21 43.50018 0.73593 35976 ft 442 kts 331°
2026-05-03 22:22 43.55678 0.70249 35971 ft 443 kts 331°
2026-05-03 22:22 43.61343 0.66905 35976 ft 443 kts 331°
2026-05-03 22:23 43.67019 0.63556 35973 ft 444 kts 331°
2026-05-03 22:23 43.72696 0.60208 35975 ft 444 kts 331°
2026-05-03 22:24 43.78366 0.56842 35976 ft 444 kts 330°
2026-05-03 22:24 43.84038 0.53464 35974 ft 444 kts 330°
2026-05-03 22:25 43.89717 0.50083 35970 ft 444 kts 330°
2026-05-03 22:25 43.95394 0.46705 35972 ft 444 kts 330°
2026-05-03 22:26 44.01030 0.43333 35971 ft 444 kts 330°
2026-05-03 22:26 44.06710 0.39927 35969 ft 445 kts 330°
2026-05-03 22:27 44.12389 0.36519 35966 ft 445 kts 330°
2026-05-03 22:27 44.18075 0.33110 35965 ft 445 kts 330°
2026-05-03 22:28 44.23761 0.29677 35960 ft 445 kts 330°
2026-05-03 22:28 44.29444 0.26239 35963 ft 445 kts 330°
2026-05-03 22:29 44.34161 0.23377 35955 ft 445 kts 330°
2026-05-03 22:29 44.39845 0.19923 35957 ft 445 kts 330°
2026-05-03 22:30 44.45534 0.16471 35957 ft 446 kts 330°
2026-05-03 22:30 44.51227 0.13012 35957 ft 446 kts 330°
2026-05-03 22:31 44.56916 0.09542 35959 ft 446 kts 330°
2026-05-03 22:31 44.62607 0.06050 35957 ft 447 kts 330°
2026-05-03 22:32 44.68312 0.02559 35957 ft 447 kts 330°
2026-05-03 22:32 44.74019 -0.00943 35958 ft 448 kts 330°
2026-05-03 22:33 44.79722 -0.04464 35961 ft 448 kts 330°
2026-05-03 22:33 44.85443 -0.07998 35957 ft 449 kts 330°
2026-05-03 22:34 44.91164 -0.11535 35963 ft 449 kts 330°
2026-05-03 22:34 44.96900 -0.15083 35964 ft 450 kts 330°
2026-05-03 22:35 44.98801 -0.16260 35962 ft 450 kts 330°